SQ5OUZ-1 Weather Reports


time (UTC)temp
C
wind
direction
speed
KPH
gust
KPH
rain 1hr
cm
rain 24hr
cm
rain mn
cm
humidity
%
barometer
mb
20260506135728 26 0 0.0 0.0 0.00 0.00 0.00 31 1007.0
20260506134225 26 0 0.0 0.0 0.00 0.00 0.00 31 1006.9
20260506132722 26 0 0.0 0.0 0.00 0.00 0.00 31 1006.9
20260506131218 26 0 0.0 0.0 0.00 0.00 0.00 32 1006.9
20260506125715 26 0 0.0 0.0 0.00 0.00 0.00 31 1006.9
20260506124212 26 0 0.0 0.0 0.00 0.00 0.00 32 1006.8
20260506122709 26 0 0.0 0.0 0.00 0.00 0.00 32 1007.1
20260506121205 26 0 0.0 0.0 0.00 0.00 0.00 33 1007.1
20260506115702 26 0 0.0 0.0 0.00 0.00 0.00 32 1006.9
20260506114159 26 0 0.0 0.0 0.00 0.00 0.00 32 1007.0
20260506112655 26 0 0.0 0.0 0.00 0.00 0.00 32 1006.9
20260506111152 26 0 0.0 0.0 0.00 0.00 0.00 32 1006.8
20260506105649 27 0 0.0 0.0 0.00 0.00 0.00 31 1006.8
20260506104146 27 0 0.0 0.0 0.00 0.00 0.00 30 1006.6
20260506102643 27 0 0.0 0.0 0.00 0.00 0.00 29 1006.6
20260506101139 28 0 0.0 0.0 0.00 0.00 0.00 27 1006.6
20260506095636 27 0 0.0 0.0 0.00 0.00 0.00 27 1006.6
20260506094132 28 0 0.0 0.0 0.00 0.00 0.00 25 1006.6
20260506092628 28 0 0.0 0.0 0.00 0.00 0.00 25 1006.6
20260506091125 30 0 0.0 0.0 0.00 0.00 0.00 22 1006.6
20260506085622 30 0 0.0 0.0 0.00 0.00 0.00 22 1006.5
20260506084119 30 0 0.0 0.0 0.00 0.00 0.00 22 1006.6
20260506082615 30 0 0.0 0.0 0.00 0.00 0.00 23 1006.5
20260506081112 29 0 0.0 0.0 0.00 0.00 0.00 23 1006.5
20260506072602 30 0 0.0 0.0 0.00 0.00 0.00 22 1006.7
20260506071059 30 0 0.0 0.0 0.00 0.00 0.00 23 1006.7
20260506061046 25 0 0.0 0.0 0.00 0.00 0.00 29 1006.9
20260506051033 18 0 0.0 0.0 0.00 0.00 0.00 41 1006.9
20260506044027 20 0 0.0 0.0 0.00 0.00 0.00 36 1006.9
20260506042523 17 0 0.0 0.0 0.00 0.00 0.00 41 1007.1
20260506041020 15 0 0.0 0.0 0.00 0.00 0.00 46 1007.3
20260506035517 14 0 0.0 0.0 0.00 0.00 0.00 49 1007.2
20260506034014 13 0 0.0 0.0 0.00 0.00 0.00 50 1007.0
20260506032510 13 0 0.0 0.0 0.00 0.00 0.00 50 1007.1
20260506031007 13 0 0.0 0.0 0.00 0.00 0.00 49 1007.1
20260506025504 14 0 0.0 0.0 0.00 0.00 0.00 48 1007.2
20260506024001 15 0 0.0 0.0 0.00 0.00 0.00 46 1007.2
20260506022457 15 0 0.0 0.0 0.00 0.00 0.00 44 1007.1
20260506020954 15 0 0.0 0.0 0.00 0.00 0.00 43 1007.3
20260506015451 16 0 0.0 0.0 0.00 0.00 0.00 41 1007.3
20260506013947 16 0 0.0 0.0 0.00 0.00 0.00 38 1007.3
20260506012444 17 0 0.0 0.0 0.00 0.00 0.00 37 1007.4
20260506010941 17 0 0.0 0.0 0.00 0.00 0.00 36 1007.3
20260506005438 17 0 0.0 0.0 0.00 0.00 0.00 37 1007.3
20260506003934 16 0 0.0 0.0 0.00 0.00 0.00 38 1007.4
20260506002431 16 0 0.0 0.0 0.00 0.00 0.00 38 1007.4
20260506000928 16 0 0.0 0.0 0.00 0.00 0.00 38 1007.4
20260505235425 16 0 0.0 0.0 0.00 0.00 0.00 38 1007.5
20260505233921 16 0 0.0 0.0 0.00 0.00 0.00 38 1007.6
20260505232418 17 0 0.0 0.0 0.00 0.00 0.00 37 1007.6
20260505230915 17 0 0.0 0.0 0.00 0.00 0.00 37 1007.5
20260505225412 17 0 0.0 0.0 0.00 0.00 0.00 37 1007.6
20260505223908 17 0 0.0 0.0 0.00 0.00 0.00 36 1007.4
20260505222404 17 0 0.0 0.0 0.00 0.00 0.00 36 1007.5
20260505220901 18 0 0.0 0.0 0.00 0.00 0.00 35 1007.6
20260505215358 18 0 0.0 0.0 0.00 0.00 0.00 33 1007.7
20260505213854 18 0 0.0 0.0 0.00 0.00 0.00 33 1007.6
20260505212351 18 0 0.0 0.0 0.00 0.00 0.00 33 1007.6
20260505210848 19 0 0.0 0.0 0.00 0.00 0.00 31 1007.5
20260505205342 20 0 0.0 0.0 0.00 0.00 0.00 31 1007.5
20260505203839 20 0 0.0 0.0 0.00 0.00 0.00 30 1007.4
20260505202336 20 0 0.0 0.0 0.00 0.00 0.00 30 1007.4
20260505200833 20 0 0.0 0.0 0.00 0.00 0.00 30 1007.3
20260505195329 21 0 0.0 0.0 0.00 0.00 0.00 29 1007.1
20260505193826 21 0 0.0 0.0 0.00 0.00 0.00 28 1007.1
20260505192323 22 0 0.0 0.0 0.00 0.00 0.00 27 1007.2
20260505190818 22 0 0.0 0.0 0.00 0.00 0.00 27 1007.2
20260505185315 22 0 0.0 0.0 0.00 0.00 0.00 27 1007.2
20260505183812 22 0 0.0 0.0 0.00 0.00 0.00 26 1007.2
20260505182309 22 0 0.0 0.0 0.00 0.00 0.00 26 1007.2
20260505180805 23 0 0.0 0.0 0.00 0.00 0.00 24 1007.1
20260505175305 23 0 0.0 0.0 0.00 0.00 0.00 23 1007.1
20260505173759 24 0 0.0 0.0 0.00 0.00 0.00 23 1007.1
20260505172256 25 0 0.0 0.0 0.00 0.00 0.00 22 1007.0
20260505170752 25 0 0.0 0.0 0.00 0.00 0.00 21 1007.0
20260505164320 25 0 0.0 0.0 0.00 0.00 0.00 19 1007.2
20260505162817 25 0 0.0 0.0 0.00 0.00 0.00 19 1007.2
20260505161314 25 0 0.0 0.0 0.00 0.00 0.00 18 1007.4
20260505152804 26 0 0.0 0.0 0.00 0.00 0.00 17 1007.8
20260505151301 26 0 0.0 0.0 0.00 0.00 0.00 17 1007.9